Gure Amuitz — EASO — position and weather

sailwx.info

Track history (hours):
 
Tides and Currents Weather Stations Pressure Air Temp Water Temp Dewpoint Dewpoint Depression Visibility Wind Speed Wind Dir Waves Ship Positions

Gure Amuitz

Last reported at 2014-Nov-28 12:30 UTC. Time now 2014-Dec-20 05:12 UTC.
Position N 43°23' W 001°48'.
Warning: this ship's position is 21 days out of date.

Length 28 m.

Type: Fishing. MMSI: 224010590.

Date/timePositionNaut miles runAvg speedWind from/ knotsBaromVisibWave heightAir tempDewpointWater temp
2014-Nov-28 12:30N 43°23' W 001°48'0 0.0
2014-Nov-28 11:27N 43°23' W 001°48'0 0.0
2014-Nov-27 11:14N 43°23' W 001°48'0 0.1
2014-Nov-27 09:11N 43°23' W 001°47'6 9.9
2014-Nov-27 08:33N 43°29' W 001°46'22 9.9
2014-Nov-27 06:20N 43°51' W 001°46'16 9.0
2014-Nov-27 04:32N 44°07' W 001°44'11 9.5
2014-Nov-27 03:20N 44°19' W 001°43'8 9.6
2014-Nov-27 02:28N 44°27' W 001°42'9 9.8
2014-Nov-27 01:32N 44°36' W 001°41'2 2.4
2014-Nov-27 00:32N 44°39' W 001°41'0 0.3
2014-Nov-26 23:33N 44°38' W 001°41'4 1.1
2014-Nov-26 20:23N 44°36' W 001°38'0 0.5
2014-Nov-26 19:33N 44°35' W 001°38'1 0.6
2014-Nov-26 18:33N 44°36' W 001°38'3 0.2
2014-Nov-26 00:33N 44°33' W 001°37'3 0.8
2014-Nov-25 21:33N 44°35' W 001°39'1 0.5
2014-Nov-25 20:33N 44°35' W 001°39'3 2.7
2014-Nov-25 19:27N 44°32' W 001°38'0 0.4
2014-Nov-25 18:33N 44°33' W 001°38'1 0.0
2014-Nov-24 20:20N 44°32' W 001°38'0 0.2
2014-Nov-24 19:32N 44°32' W 001°38'2 1.6
2014-Nov-24 18:25N 44°30' W 001°37'  
2014-Nov-21 08:33N 43°23' W 001°47'11 8.4
2014-Nov-21 07:14N 43°29' W 002°00'3 4.6
2014-Nov-21 06:32N 43°31' W 002°04'5 1.6
2014-Nov-21 03:32N 43°34' W 001°59'3 0.8
2014-Nov-21 00:21N 43°33' W 002°03'1 0.9
2014-Nov-20 23:31N 43°33' W 002°04'1 0.9
2014-Nov-20 22:32N 43°33' W 002°05'1 0.5
2014-Nov-20 21:33N 43°32' W 002°05'8 8.4
2014-Nov-20 20:34N 43°36' W 001°55'14 2.0
2014-Nov-20 13:12N 43°23' W 001°47'0 0.0
2014-Nov-20 11:29N 43°23' W 001°47'0 0.0
2014-Nov-20 10:33N 43°23' W 001°47'0 0.0
2014-Nov-20 09:33N 43°23' W 001°47'6 6.1
2014-Nov-20 08:33N 43°29' W 001°46'9 9.4
2014-Nov-20 07:33N 43°38' W 001°44'9 9.3
2014-Nov-20 06:33N 43°48' W 001°43'1010.0
2014-Nov-20 05:34N 43°58' W 001°41'10 9.7
2014-Nov-20 04:32N 44°07' W 001°40'10 9.3
2014-Nov-20 03:26N 44°18' W 001°38'7 8.2
2014-Nov-20 02:33N 44°25' W 001°37'1 0.7
2014-Nov-20 01:33N 44°25' W 001°36'1 0.8
2014-Nov-20 00:33N 44°24' W 001°36'1 0.7
2014-Nov-19 23:33N 44°23' W 001°36'4 3.7
2014-Nov-19 22:33N 44°20' W 001°38'1 0.6
2014-Nov-19 21:22N 44°19' W 001°38'3 4.2
2014-Nov-19 20:33N 44°17' W 001°35'3 2.7
2014-Nov-19 19:33N 44°14' W 001°34'4 4.2
2014-Nov-19 18:33N 44°11' W 001°39'11 9.8
2014-Nov-19 17:24N 43°60' W 001°40'37 9.0
2014-Nov-19 13:16N 43°23' W 001°47'0 0.0
2014-Nov-19 09:32N 43°23' W 001°48'0 0.0
2014-Nov-19 08:20N 43°23' W 001°48'0 0.0
2014-Nov-18 14:04N 43°23' W 001°47'  
Track history (hours):
 
Tides and Currents Weather Stations Pressure Air Temp Water Temp Dewpoint Dewpoint Depression Visibility Wind Speed Wind Dir Waves Ship Positions

Gure Amuitz

Last reported at 2014-Nov-28 12:30 UTC. Time now 2014-Dec-20 05:12 UTC.
Position N 43°23' W 001°48'.
Warning: this ship's position is 21 days out of date.

Length 28 m.

Type: Fishing. MMSI: 224010590.

Date/timePositionNaut miles runAvg speedWind from/ knotsBaromVisibWave heightAir tempDewpointWater temp
2014-Nov-28 12:30N 43°23' W 001°48'0 0.0
2014-Nov-28 11:27N 43°23' W 001°48'0 0.0
2014-Nov-27 11:14N 43°23' W 001°48'0 0.1
2014-Nov-27 09:11N 43°23' W 001°47'6 9.9
2014-Nov-27 08:33N 43°29' W 001°46'22 9.9
2014-Nov-27 06:20N 43°51' W 001°46'16 9.0
2014-Nov-27 04:32N 44°07' W 001°44'11 9.5
2014-Nov-27 03:20N 44°19' W 001°43'8 9.6
2014-Nov-27 02:28N 44°27' W 001°42'9 9.8
2014-Nov-27 01:32N 44°36' W 001°41'2 2.4
2014-Nov-27 00:32N 44°39' W 001°41'0 0.3
2014-Nov-26 23:33N 44°38' W 001°41'4 1.1
2014-Nov-26 20:23N 44°36' W 001°38'0 0.5
2014-Nov-26 19:33N 44°35' W 001°38'1 0.6
2014-Nov-26 18:33N 44°36' W 001°38'3 0.2
2014-Nov-26 00:33N 44°33' W 001°37'3 0.8
2014-Nov-25 21:33N 44°35' W 001°39'1 0.5
2014-Nov-25 20:33N 44°35' W 001°39'3 2.7
2014-Nov-25 19:27N 44°32' W 001°38'0 0.4
2014-Nov-25 18:33N 44°33' W 001°38'1 0.0
2014-Nov-24 20:20N 44°32' W 001°38'0 0.2
2014-Nov-24 19:32N 44°32' W 001°38'2 1.6
2014-Nov-24 18:25N 44°30' W 001°37'  
2014-Nov-21 08:33N 43°23' W 001°47'11 8.4
2014-Nov-21 07:14N 43°29' W 002°00'3 4.6
2014-Nov-21 06:32N 43°31' W 002°04'5 1.6
2014-Nov-21 03:32N 43°34' W 001°59'3 0.8
2014-Nov-21 00:21N 43°33' W 002°03'1 0.9
2014-Nov-20 23:31N 43°33' W 002°04'1 0.9
2014-Nov-20 22:32N 43°33' W 002°05'1 0.5
2014-Nov-20 21:33N 43°32' W 002°05'8 8.4
2014-Nov-20 20:34N 43°36' W 001°55'14 2.0
2014-Nov-20 13:12N 43°23' W 001°47'0 0.0
2014-Nov-20 11:29N 43°23' W 001°47'0 0.0
2014-Nov-20 10:33N 43°23' W 001°47'0 0.0
2014-Nov-20 09:33N 43°23' W 001°47'6 6.1
2014-Nov-20 08:33N 43°29' W 001°46'9 9.4
2014-Nov-20 07:33N 43°38' W 001°44'9 9.3
2014-Nov-20 06:33N 43°48' W 001°43'1010.0
2014-Nov-20 05:34N 43°58' W 001°41'10 9.7
2014-Nov-20 04:32N 44°07' W 001°40'10 9.3
2014-Nov-20 03:26N 44°18' W 001°38'7 8.2
2014-Nov-20 02:33N 44°25' W 001°37'1 0.7
2014-Nov-20 01:33N 44°25' W 001°36'1 0.8
2014-Nov-20 00:33N 44°24' W 001°36'1 0.7
2014-Nov-19 23:33N 44°23' W 001°36'4 3.7
2014-Nov-19 22:33N 44°20' W 001°38'1 0.6
2014-Nov-19 21:22N 44°19' W 001°38'3 4.2
2014-Nov-19 20:33N 44°17' W 001°35'3 2.7
2014-Nov-19 19:33N 44°14' W 001°34'4 4.2
2014-Nov-19 18:33N 44°11' W 001°39'11 9.8
2014-Nov-19 17:24N 43°60' W 001°40'37 9.0
2014-Nov-19 13:16N 43°23' W 001°47'0 0.0
2014-Nov-19 09:32N 43°23' W 001°48'0 0.0
2014-Nov-19 08:20N 43°23' W 001°48'0 0.0
2014-Nov-18 14:04N 43°23' W 001°47'  

Dump ship's entire track history